STORK-5 (MARTA) (48872 NORAD) Tracking and Keplerian Element Data

This shows tracking and keplerian element data for the satellite.

Feedback or suggestion? Click here.




ElementValue
Catalog48872
NameSTORK-5 (MARTA)
Epoch Orbit1330
Epoch Day269.11110485
Epoch Year2021
RAAN256.958
Inclination60.7075
Eccentricity0.0025365
Argument of Perigee4.5849
Mean Anonmoly73.8416
Mean Motion15.19967133
Decay Rate3.552E-05
L11 48872U 21058B 21269.11110485 .00003552 00000-0 17481-3 0 9995
L22 48872 60.7075 256.9580 0025365 4.5849 73.8416 15.19967133 13303

Live tracking and technical data element details for STORK-5 (MARTA) (NORAD 48872). STORK-5 (MARTA) can be tracked NOW for your location showing map with azimuth and elevation plus other details from your city location.

Track the satellite on the map from your city or location and see movement details for azimuth, elevation, latitude, longitude, range, height, and movement on the map or in text.







IsCatalogInMostPopularTable: catalog: 48872, numindb: 15
Update: records affected: 1



GetName: 48872 STORK-5 (MARTA)

Hit Count: updated at: Sun, 26 Sep 2021 16:42:41 GMT